CW6225 Weather Reports


Display with metric or nautical units.
time (UTC)temp
F
wind
direction
speed
MPH
gust
MPH
rain 1hr
in
rain 24hr
in
rain mn
in
humidity
%
barometer
mb
20260902013100 60 0 0.0 2.0 0.00 0.00 0.00 79 1009.1
20260902011602 59 0 0.0 4.0 0.00 0.00 0.00 80 1009.2
20260902004604 59 163 1.0 5.0 0.00 0.00 0.00 81 1009.1
20260902003104 59 168 2.0 6.0 0.00 0.00 0.00 80 1009.1
20260902001603 60 165 2.0 4.0 0.00 0.00 0.00 79 1008.9
20260902000109 61 162 3.0 5.0 0.00 0.00 0.00 78 1008.9
20260901234555 61 163 3.0 5.0 0.00 0.00 0.00 78 1008.9
20260901233058 61 153 3.0 6.0 0.00 0.00 0.00 78 1009.0
20260901231554 61 164 4.0 6.0 0.00 0.00 0.00 79 1009.0
20260901230055 61 163 4.0 6.0 0.00 0.00 0.00 79 1009.0
20260901224600 61 165 4.0 6.0 0.00 0.00 0.00 79 1008.9
20260901223055 61 168 5.0 6.0 0.00 0.00 0.00 79 1009.1
20260901221604 61 164 5.0 7.0 0.00 0.00 0.00 78 1009.1
20260901220100 62 167 5.0 6.0 0.00 0.00 0.00 77 1009.2
20260901214610 61 163 5.0 7.0 0.00 0.00 0.00 79 1009.3
20260901213113 61 164 4.0 6.0 0.00 0.00 0.00 80 1009.4
20260901211600 61 170 4.0 6.0 0.00 0.00 0.00 80 1009.6
20260901210057 60 163 3.0 5.0 0.00 0.00 0.00 82 1009.6
20260901204559 60 169 2.0 5.0 0.00 0.00 0.00 83 1009.7
20260901203131 59 165 2.0 5.0 0.00 0.00 0.00 84 1009.7
20260901201600 60 165 3.0 6.0 0.00 0.00 0.00 84 1009.9
20260901200055 59 168 2.0 5.0 0.00 0.00 0.00 86 1009.6
20260901194557 57 171 2.0 4.0 0.00 0.00 0.00 88 1009.8
20260901193127 56 167 2.0 4.0 0.00 0.00 0.00 87 1009.9
20260901191553 58 163 3.0 5.0 0.00 0.00 0.00 84 1009.9
20260901190100 61 162 2.0 5.0 0.00 0.00 0.00 82 1009.9
20260901184555 60 163 3.0 5.0 0.00 0.00 0.00 85 1009.9
20260901183055 58 179 2.0 5.0 0.00 0.00 0.00 86 1009.9
20260901181606 58 171 2.0 4.0 0.00 0.00 0.00 88 1010.0
20260901174559 59 160 1.0 4.0 0.00 0.00 0.00 87 1009.9
20260901173101 58 0 0.0 3.0 0.00 0.00 0.00 87 1009.8
20260901171613 58 161 0.0 3.0 0.00 0.00 0.00 88 1009.9
20260901170106 58 0 0.0 1.0 0.00 0.00 0.00 87 1009.7
20260901164558 58 0 0.0 1.0 0.00 0.00 0.00 88 1009.8
20260901163101 57 0 0.0 1.0 0.00 0.00 0.00 90 1009.9
20260901161558 57 0 0.0 0.0 0.00 0.00 0.00 91 1009.8
20260901160106 56 0 0.0 0.0 0.00 0.00 0.00 91 1009.8
20260901154606 56 0 0.0 0.0 0.00 0.00 0.00 92 1009.9
20260901153056 55 0 0.0 0.0 0.00 0.00 0.00 92 1009.7
20260901151555 55 0 0.0 0.0 0.00 0.00 0.00 92 1009.6
20260901150108 54 0 0.0 0.0 0.00 0.00 0.00 91 1009.7
20260901144557 54 0 0.0 1.0 0.00 0.00 0.00 91 1009.6
20260901143107 54 0 0.0 0.0 0.00 0.00 0.00 91 1009.5
20260901141551 54 0 0.0 1.0 0.00 0.00 0.00 92 1009.4
20260901134618 54 0 0.0 1.0 0.00 0.00 0.00 92 1009.1
20260901133059 54 184 0.0 0.0 0.00 0.00 0.00 91 1009.0
20260901131558 53 0 0.0 1.0 0.00 0.00 0.00 91 1008.8
20260901130059 53 0 0.0 0.0 0.00 0.00 0.00 91 1008.8
20260901124559 53 0 0.0 0.0 0.00 0.00 0.00 91 1008.8
20260901123052 53 0 0.0 0.0 0.00 0.00 0.00 91 1008.8
20260901121549 53 0 0.0 0.0 0.00 0.00 0.00 90 1008.7
20260901120059 53 0 0.0 0.0 0.00 0.00 0.00 90 1008.9
20260901114600 53 0 0.0 0.0 0.00 0.00 0.00 90 1008.9
20260901113105 53 0 0.0 0.0 0.00 0.00 0.00 90 1008.9
20260901111558 53 0 0.0 0.0 0.00 0.00 0.00 90 1009.0
20260901110056 53 0 0.0 0.0 0.00 0.00 0.00 89 1009.0
20260901104603 53 0 0.0 0.0 0.00 0.00 0.00 89 1008.8
20260901103105 53 0 0.0 0.0 0.00 0.00 0.00 88 1008.9
20260901101604 53 0 0.0 0.0 0.00 0.00 0.00 88 1009.1
20260901100056 54 0 0.0 0.0 0.00 0.00 0.00 88 1009.1
20260901094549 54 0 0.0 0.0 0.00 0.00 0.00 87 1008.9
20260901093059 54 0 0.0 0.0 0.00 0.00 0.00 87 1008.8
20260901091557 54 0 0.0 0.0 0.00 0.00 0.00 87 1008.8
20260901090055 54 0 0.0 0.0 0.00 0.00 0.00 86 1008.8
20260901084558 54 0 0.0 0.0 0.00 0.00 0.00 86 1008.7
20260901083058 54 0 0.0 0.0 0.00 0.00 0.00 85 1008.7
20260901081556 55 0 0.0 0.0 0.00 0.00 0.00 85 1008.9
20260901080109 55 0 0.0 0.0 0.00 0.00 0.00 85 1008.6
20260901074615 55 0 0.0 0.0 0.00 0.00 0.00 85 1008.8
20260901073101 55 0 0.0 0.0 0.00 0.00 0.00 84 1008.6
20260901071604 55 0 0.0 0.0 0.00 0.00 0.00 84 1008.8
20260901064559 56 0 0.0 0.0 0.00 0.00 0.00 84 1008.8
20260901063057 56 0 0.0 0.0 0.00 0.00 0.00 84 1008.8
20260901061555 56 0 0.0 0.0 0.00 0.00 0.00 84 1009.0
20260901054555 56 0 0.0 0.0 0.00 0.00 0.00 83 1009.1
20260901053054 57 0 0.0 2.0 0.00 0.00 0.00 81 1009.1
20260901051600 58 0 0.0 3.0 0.00 0.00 0.00 80 1009.1
20260901050057 58 0 0.0 3.0 0.00 0.00 0.00 79 1009.0
20260901044557 58 275 1.0 4.0 0.00 0.00 0.00 80 1009.1
20260901043054 58 0 1.0 4.0 0.00 0.00 0.00 82 1009.0
20260901041556 57 280 2.0 6.0 0.00 0.00 0.00 86 1009.0
20260901040113 55 0 0.0 0.0 0.00 0.00 0.00 86 1009.0
20260901034559 55 0 0.0 2.0 0.00 0.00 0.00 86 1008.9
20260901033057 56 0 0.0 1.0 0.00 0.00 0.00 85 1009.1
20260901031552 56 0 0.0 0.0 0.00 0.00 0.00 85 1009.0
20260901030100 56 0 0.0 0.0 0.00 0.00 0.00 84 1009.0
20260901024600 57 0 0.0 1.0 0.00 0.00 0.00 82 1009.1
20260901023103 58 0 0.0 3.0 0.00 0.00 0.00 81 1009.0
20260901021605 59 0 0.0 3.0 0.00 0.00 0.00 77 1008.9
20260901020101 61 267 0.0 4.0 0.00 0.00 0.00 74 1009.1
20260901014557 67 0 0.0 3.0 0.00 0.00 0.00 68 1009.2